EW1931 Weather Reports


time (UTC)temp
C
wind
direction
speed
KPH
gust
KPH
rain 1hr
cm
rain 24hr
cm
rain mn
cm
humidity
%
barometer
mb
20220627214504 28 113 8.0 22.5 0.00 0.00 0.00 15 1008.5
20220627213003 28 112 14.5 25.7 0.00 0.00 0.00 17 1008.6
20220627211503 28 111 9.7 22.5 0.00 0.00 0.00 17 1008.8
20220627210001 28 107 9.7 20.9 0.00 0.00 0.00 16 1009.1
20220627204605 27 26 8.0 19.3 0.00 0.00 0.00 17 1009.2
20220627203058 27 169 6.4 14.5 0.00 0.00 0.00 17 1009.4
20220627201558 28 168 8.0 17.7 0.00 0.00 0.00 17 1009.6
20220627200057 27 300 3.2 12.9 0.00 0.00 0.00 16 1009.6
20220627194557 27 113 17.7 24.1 0.00 0.00 0.00 17 1009.8
20220627193055 27 314 8.0 20.9 0.00 0.00 0.00 16 1010.0
20220627191551 27 146 12.9 20.9 0.00 0.00 0.00 18 1010.1
20220627190049 27 106 6.4 16.1 0.00 0.00 0.00 19 1010.2
20220627184546 27 215 6.4 20.9 0.00 0.00 0.00 19 1010.3
20220627183045 26 126 6.4 20.9 0.00 0.00 0.00 21 1010.5
20220627181541 26 51 4.8 17.7 0.00 0.00 0.00 20 1010.8
20220627180042 26 130 3.2 19.3 0.00 0.00 0.00 23 1011.0
20220627174542 26 79 8.0 20.9 0.00 0.00 0.00 22 1011.1
20220627173036 25 78 6.4 12.9 0.00 0.00 0.00 23 1011.2
20220627171538 25 74 6.4 11.3 0.00 0.00 0.00 22 1011.4
20220627170034 25 124 4.8 12.9 0.00 0.00 0.00 23 1011.5
20220627164535 25 119 3.2 8.0 0.00 0.00 0.00 26 1011.5
20220627163032 24 73 1.6 8.0 0.00 0.00 0.00 26 1011.6
20220627161529 23 188 0.0 4.8 0.00 0.00 0.00 26 1011.8
20220627160028 23 180 3.2 6.4 0.00 0.00 0.00 33 1011.9
20220627154521 22 162 1.6 6.4 0.00 0.00 0.00 35 1012.1
20220627153017 21 136 0.0 4.8 0.00 0.00 0.00 38 1012.2
20220627151515 21 86 1.6 4.8 0.00 0.00 0.00 40 1012.2
20220627150012 20 119 1.6 4.8 0.00 0.00 0.00 41 1012.3
20220627144508 19 72 1.6 4.8 0.00 0.00 0.00 43 1012.5
20220627143004 18 131 1.6 4.8 0.00 0.00 0.00 45 1012.5
20220627141600 17 72 1.6 4.8 0.00 0.00 0.00 48 1012.6
20220627140059 16 38 3.2 6.4 0.00 0.00 0.00 50 1012.7
20220627134553 15 21 3.2 8.0 0.00 0.00 0.00 51 1012.6
20220627133050 14 17 6.4 9.7 0.00 0.00 0.00 54 1012.7
20220627131547 13 5 6.4 11.3 0.00 0.00 0.00 57 1012.4
20220627130049 12 9 8.0 12.9 0.00 0.00 0.00 56 1012.4
20220627124548 11 360 3.2 8.0 0.00 0.00 0.00 62 1012.6
20220627123054 9 304 4.8 6.4 0.00 0.00 0.00 62 1012.6
20220627121546 8 300 4.8 8.0 0.00 0.00 0.00 62 1012.5
20220627120044 8 280 4.8 6.4 0.00 0.00 0.00 60 1012.6
20220627114543 8 312 4.8 11.3 0.00 0.00 0.00 61 1012.6
20220627113041 8 351 6.4 11.3 0.00 0.00 0.00 61 1012.3
20220627111540 8 351 8.0 12.9 0.00 0.00 0.00 63 1012.1
20220627110043 8 5 9.7 14.5 0.00 0.00 0.00 60 1012.0
20220627104544 9 338 8.0 11.3 0.00 0.00 0.00 60 1011.8
20220627103040 9 342 9.7 12.9 0.00 0.00 0.00 59 1011.8
20220627101539 9 336 8.0 12.9 0.00 0.00 0.00 58 1011.7
20220627100034 9 344 8.0 11.3 0.00 0.00 0.00 58 1011.7
20220627094533 10 338 8.0 9.7 0.00 0.00 0.00 57 1011.6
20220627093031 10 348 6.4 12.9 0.00 0.00 0.00 57 1011.7
20220627091529 10 340 8.0 12.9 0.00 0.00 0.00 56 1011.5
20220627090028 10 355 6.4 11.3 0.00 0.00 0.00 55 1011.6
20220627084526 11 5 6.4 9.7 0.00 0.00 0.00 53 1011.6
20220627083028 10 347 3.2 11.3 0.00 0.00 0.00 54 1011.4
20220627081523 10 5 9.7 12.9 0.00 0.00 0.00 52 1011.4
20220627080022 11 360 8.0 12.9 0.00 0.00 0.00 52 1011.4
20220627074519 12 360 8.0 11.3 0.00 0.00 0.00 48 1011.4
20220627073017 12 13 8.0 11.3 0.00 0.00 0.00 47 1011.4
20220627071516 12 355 9.7 11.3 0.00 0.00 0.00 47 1011.4
20220627070013 12 355 9.7 12.9 0.00 0.00 0.00 47 1011.5
20220627064509 12 5 9.7 12.9 0.00 0.00 0.00 45 1011.7
20220627063013 12 360 8.0 14.5 0.00 0.00 0.00 45 1011.7
20220627061505 12 338 8.0 12.9 0.00 0.00 0.00 44 1011.8
20220627060015 13 5 9.7 14.5 0.00 0.00 0.00 43 1011.8
20220627054504 13 348 9.7 14.5 0.00 0.00 0.00 43 1011.8
20220627053008 13 17 11.3 14.5 0.00 0.00 0.00 44 1012.0
20220627051503 13 355 9.7 14.5 0.00 0.00 0.00 42 1012.1
20220627050000 13 345 11.3 14.5 0.00 0.00 0.00 41 1012.2
20220627044600 13 351 12.9 16.1 0.00 0.00 0.00 41 1012.2
20220627043100 15 349 11.3 16.1 0.00 0.00 0.00 39 1012.2
20220627041559 15 355 6.4 9.7 0.00 0.00 0.00 35 1012.2
20220627040059 16 14 8.0 11.3 0.00 0.00 0.00 34 1012.0
20220627034558 16 5 9.7 11.3 0.00 0.00 0.00 33 1012.0
20220627033059 18 5 4.8 8.0 0.00 0.00 0.00 31 1011.8
20220627031558 19 38 6.4 9.7 0.00 0.00 0.00 32 1011.8
20220627030106 21 38 9.7 11.3 0.00 0.00 0.00 30 1011.7
20220627024604 22 76 3.2 4.8 0.00 0.00 0.00 24 1011.6
20220627023057 23 76 3.2 6.4 0.00 0.00 0.00 23 1011.7
20220627021557 24 76 1.6 4.8 0.00 0.00 0.00 19 1011.7
20220627020057 25 45 0.0 3.2 0.00 0.00 0.00 26 1011.7
20220627014555 25 45 0.0 4.8 0.00 0.00 0.00 17 1011.9
20220627013057 25 45 0.0 4.8 0.00 0.00 0.00 15 1011.9
20220627011554 25 62 3.2 8.0 0.00 0.00 0.00 14 1012.0
20220627010051 26 310 8.0 9.7 0.00 0.00 0.00 14 1012.1
20220627004602 25 214 4.8 8.0 0.00 0.00 0.00 13 1012.2
20220627003051 25 87 6.4 14.5 0.00 0.00 0.00 15 1012.2
20220627000044 26 226 0.0 12.9 0.00 0.00 0.00 14 1012.5
20220626234547 26 96 1.6 12.9 0.00 0.00 0.00 14 1012.6
20220626233042 28 142 3.2 11.3 0.00 0.00 0.00 14 1012.9
20220626231538 27 188 3.2 14.5 0.00 0.00 0.00 14 1012.9
20220626230041 25 193 4.8 19.3 0.00 0.00 0.00 15 1013.1
20220626224549 25 229 9.7 19.3 0.00 0.00 0.00 14 1013.3
20220626223041 25 265 1.6 14.5 0.00 0.00 0.00 13 1013.4
20220626221534 25 177 9.7 19.3 0.00 0.00 0.00 18 1013.5
20220626220028 25 154 3.2 11.3 0.00 0.00 0.00 15 1013.7